�N����,����,����,����,����,�C��,���x,�~����,�S�V����,�ő�u�ԕ���,,,
,,,,,,,,,����,����,����,�N��
yyyy/mm/dd,hh:mm:ss,(16),16����,m/s,��,%,mm,KW/�u,(16),16����,m/s,Time
2013/2/1,1:00:00,270,��,2.3,-14.2,91,0,0.01,270,��,3.3,59
2013/2/1,2:00:00,23,�k�k��,2.5,-13.1,93.6,0,0.01,270,��,3.6,1
2013/2/1,3:00:00,360,�k,0.7,-13.5,93.6,0,0.01,270,��,2.5,13
2013/2/1,4:00:00,270,��,1.3,-13.4,92.7,0,0.01,270,��,3.1,20
2013/2/1,5:00:00,315,�k��,2.2,-13.3,93.5,0,0.01,270,��,3.2,33
2013/2/1,6:00:00,360,�k,1.6,-14.7,90.8,0,0.01,225,�쐼,3.4,14
2013/2/1,7:00:00,315,�k��,0.9,-13.6,92.3,0,0.01,270,��,3.4,21
2013/2/1,8:00:00,338,�k�k��,2.5,-10.8,93.4,0,0.1,68,���k��,3.9,50
2013/2/1,9:00:00,293,���k��,2,-7.8,95.2,0,0.28,113,���쓌,4.2,39
2013/2/1,10:00:00,270,��,2.4,-3.6,77.3,0,0.44,270,��,3,52
2013/2/1,11:00:00,203,��쐼,2.5,0.5,62.6,0,0.54,225,�쐼,3.8,41
2013/2/1,12:00:00,158,��쓌,2.1,1.1,64.1,0,0.59,180,��,3.7,0
2013/2/1,13:00:00,180,��,2.3,0.5,67.1,0.5,0.57,158,��쓌,5.2,27
2013/2/1,14:00:00,158,��쓌,2.8,-0.2,79.2,0,0.49,180,��,5.5,23
2013/2/1,15:00:00,180,��,2.4,-0.4,86.7,0.5,0.35,180,��,5.1,0
2013/2/1,16:00:00,90,��,1.9,-2.9,96,0,0.14,135,�쓌,3.4,4
2013/2/1,17:00:00,23,�k�k��,1.1,-5.6,98.7,0,0.03,68,���k��,2.6,39
2013/2/1,18:00:00,45,�k��,2.4,-3.9,99.9,0,0.01,45,�k��,3.5,36
2013/2/1,19:00:00,45,�k��,0.7,-3.1,100,0,0,45,�k��,3.8,11
2013/2/1,20:00:00,270,��,1.6,-3.5,100,0,0.01,270,��,2.6,0
2013/2/1,21:00:00,293,���k��,1.8,-2.8,100,0,0,270,��,2.9,59
2013/2/1,22:00:00,248,���쐼,1.3,-2.8,100,0,0,315,�k��,2.6,1
2013/2/1,23:00:00,270,��,1,-3.3,100,0,0,315,�k��,2,45
2013/2/1,0:00:00,293,���k��,1.4,-3.8,100,0,0,248,���쐼,3.2,11
2013/2/2,1:00:00,293,���k��,1.2,-4,100,0,0,315,�k��,2.5,1
2013/2/2,2:00:00,270,��,2,-4,99.7,0,0.01,203,��쐼,3.3,59
2013/2/2,3:00:00,315,�k��,1,-3.3,99.8,0,0.01,315,�k��,3.2,17
2013/2/2,4:00:00,293,���k��,2.5,-3.7,99.1,0,0.01,23,�k�k��,4,55
2013/2/2,5:00:00,293,���k��,1.4,-4,99.4,0,0.01,293,���k��,4.3,35
2013/2/2,6:00:00,315,�k��,1.7,-4.3,100,0,0.01,315,�k��,2.4,54
2013/2/2,7:00:00,293,���k��,0.9,-3.6,100,0,0.01,315,�k��,2.9,14
2013/2/2,8:00:00,315,�k��,1.4,-2.7,100,0,0.07,113,���쓌,2.5,38
2013/2/2,9:00:00,293,���k��,0.9,-1.8,100,0,0.14,135,�쓌,3,36
2013/2/2,10:00:00,338,�k�k��,0.7,-0.7,100,0,0.16,315,�k��,2.9,57
2013/2/2,11:00:00,293,���k��,1.7,0.8,98.7,0.5,0.3,180,��,3,49
2013/2/2,12:00:00,248,���쐼,5.4,6.2,81.7,0,0.56,248,���쐼,9.9,58
2013/2/2,13:00:00,248,���쐼,8.3,8,59.1,0,0.59,248,���쐼,13.6,34
2013/2/2,14:00:00,270,��,9.9,6.9,52.4,0,0.49,270,��,17,7
2013/2/2,15:00:00,270,��,9.4,5.7,50.5,0,0.38,270,��,17.1,27
2013/2/2,16:00:00,248,���쐼,9.2,4.8,45.5,0,0.19,248,���쐼,17.3,8
2013/2/2,17:00:00,270,��,5.1,2.8,48.4,0,0.03,248,���쐼,13.2,0
2013/2/2,18:00:00,248,���쐼,4.3,1.3,48.7,0,0,248,���쐼,7.8,4
2013/2/2,19:00:00,270,��,6.9,0.5,44.8,0,0,248,���쐼,10.8,42
2013/2/2,20:00:00,270,��,1.9,-1.2,45.1,0,0.01,225,�쐼,10.2,12
2013/2/2,21:00:00,360,�k,0.8,-4.9,66.1,0,0,68,���k��,3.5,24
2013/2/2,22:00:00,315,�k��,3.2,-3.7,56.5,0,0,293,���k��,6.1,58
2013/2/2,23:00:00,315,�k��,2.6,-4.7,53,0,0.01,338,�k�k��,6.1,1
2013/2/2,0:00:00,270,��,2,-6,59.9,0.5,0.01,315,�k��,5.1,29
2013/2/3,1:00:00,360,�k,1.4,-9,56.1,0,0.01,338,�k�k��,3.4,39
2013/2/3,2:00:00,270,��,1.1,-10.6,61.5,0,0.01,68,���k��,2.7,23
2013/2/3,3:00:00,270,��,2.6,-11.8,74.9,0,0.01,248,���쐼,3.6,53
2013/2/3,4:00:00,270,��,6.5,-6.8,53.1,0,0.01,270,��,9.1,43
2013/2/3,5:00:00,270,��,4.4,-7.8,58.8,0,0.01,270,��,9.9,9
2013/2/3,6:00:00,270,��,3.6,-10.4,62.7,0,0.01,270,��,8.8,11
2013/2/3,7:00:00,248,���쐼,2.9,-7.8,52,0,0.01,270,��,6.7,23
2013/2/3,8:00:00,248,���쐼,4.6,-7.1,49.3,0,0.13,270,��,8.4,51
2013/2/3,9:00:00,248,���쐼,6.5,-5.4,41.6,0,0.32,270,��,10.3,59
2013/2/3,10:00:00,248,���쐼,6.7,-4.9,41.1,0,0.49,248,���쐼,13.4,37
2013/2/3,11:00:00,248,���쐼,7.8,-4.6,47.4,0,0.59,225,�쐼,14.7,31
2013/2/3,12:00:00,248,���쐼,7.3,-5,50.9,0,0.53,248,���쐼,13.2,20
2013/2/3,13:00:00,248,���쐼,7.8,-5,60.4,0,0.57,203,��쐼,13,41
2013/2/3,14:00:00,248,���쐼,6.1,-4.6,55.3,0,0.52,248,���쐼,11.5,6
2013/2/3,15:00:00,248,���쐼,8.4,-4.7,46.8,0,0.4,248,���쐼,13.4,55
2013/2/3,16:00:00,248,���쐼,5.1,-6,63.7,0,0.18,270,��,12,11
2013/2/3,17:00:00,248,���쐼,2.9,-7.6,61.9,0,0.03,225,�쐼,9.6,30
2013/2/3,18:00:00,248,���쐼,4.7,-6.6,52.8,0,0.01,248,���쐼,10.8,24
2013/2/3,19:00:00,248,���쐼,5.2,-6.5,53.2,0,0.01,248,���쐼,9,25
2013/2/3,20:00:00,248,���쐼,5.5,-6,55.4,0,0.01,248,���쐼,12,47
2013/2/3,21:00:00,248,���쐼,7,-5.7,53.2,0,0.01,248,���쐼,13.5,38
2013/2/3,22:00:00,248,���쐼,7,-5.4,57.6,0,0,270,��,11.5,41
2013/2/3,23:00:00,270,��,7.3,-4.7,55.1,0,0.01,270,��,11.5,57
2013/2/3,0:00:00,248,���쐼,7.7,-4.4,55.4,0,0.01,270,��,13.2,6
2013/2/4,1:00:00,270,��,7.5,-4.3,53.5,0,0,248,���쐼,10.7,3
2013/2/4,2:00:00,248,���쐼,7.7,-4.2,55.6,0,0.01,270,��,12.2,49
2013/2/4,3:00:00,248,���쐼,9.1,-3.7,53.5,0,0.01,248,���쐼,13.2,39
2013/2/4,4:00:00,248,���쐼,1.6,-3.9,48,0,0,248,���쐼,11.6,1
2013/2/4,5:00:00,248,���쐼,5.3,-4.3,54.7,0,0,270,��,7.6,49
2013/2/4,6:00:00,203,��쐼,0.9,-8.8,62.1,0,0.01,270,��,7.9,3
2013/2/4,7:00:00,23,�k�k��,1.1,-8.2,64.1,0,0.01,113,���쓌,3.2,23
2013/2/4,8:00:00,360,�k,0.8,-8.3,74.1,0,0.09,360,�k,2.6,7
2013/2/4,9:00:00,45,�k��,2,-4.4,53.2,0,0.27,23,�k�k��,3.1,36
2013/2/4,10:00:00,45,�k��,2.6,-2.4,54.5,0,0.43,68,���k��,3.9,59
2013/2/4,11:00:00,90,��,4,-1,58.1,0,0.54,90,��,5.7,0
2013/2/4,12:00:00,68,���k��,3.7,-0.9,58.8,0,0.6,90,��,6.1,44
2013/2/4,13:00:00,68,���k��,3,0.1,59.3,0,0.58,68,���k��,5.5,4
2013/2/4,14:00:00,45,�k��,2.3,-0.9,57,0,0.5,90,��,5,32
2013/2/4,15:00:00,45,�k��,1.1,-0.9,64.4,0,0.32,45,�k��,2.9,10
2013/2/4,16:00:00,45,�k��,1.1,-1.8,70.5,0,0.08,68,���k��,2.1,39
2013/2/4,17:00:00,68,���k��,0.5,-3.2,77.1,0,0.02,68,���k��,1.7,22
2013/2/4,18:00:00,248,���쐼,0.4,-3.9,83.8,0,0.01,270,��,5.2,41
2013/2/4,19:00:00,315,�k��,1,-2.7,84.3,0,0,248,���쐼,3.5,28
2013/2/4,20:00:00,293,���k��,1.6,-3.1,90.9,0,0,270,��,3.1,56
2013/2/4,21:00:00,338,�k�k��,2.5,-3.5,96.1,0,0.01,338,�k�k��,4.9,56
2013/2/4,22:00:00,315,�k��,2.4,-3.4,91.1,0,0.01,338,�k�k��,4.2,47
2013/2/4,23:00:00,248,���쐼,2,-3.7,89.2,0,0.01,315,�k��,4.6,18
2013/2/4,0:00:00,270,��,1.6,-6.1,93.9,0,0.01,270,��,3.1,20
2013/2/5,1:00:00,293,���k��,2.4,-5.9,85.8,0,0.01,315,�k��,4.4,52
2013/2/5,2:00:00,248,���쐼,1.1,-10.1,95.6,0,0.01,203,��쐼,3.2,7
2013/2/5,3:00:00,293,���k��,2.9,-8.1,94.1,0,0.01,225,�쐼,5.7,57
2013/2/5,4:00:00,315,�k��,4.4,-4.8,69.8,0,0.01,338,�k�k��,7.8,52
2013/2/5,5:00:00,315,�k��,5,-5.8,77.2,0,0.01,360,�k,11,3
2013/2/5,6:00:00,338,�k�k��,3.3,-7,70.6,0,0.01,360,�k,8.6,7
2013/2/5,7:00:00,338,�k�k��,2.5,-7.6,71.1,0,0.01,23,�k�k��,6.2,57
2013/2/5,8:00:00,270,��,0.9,-9,70.9,0,0.11,338,�k�k��,4.4,2
2013/2/5,9:00:00,315,�k��,1.9,-6.2,59.6,0,0.32,338,�k�k��,3,51
2013/2/5,10:00:00,270,��,3.8,-5.5,55,0,0.49,270,��,6.6,59
2013/2/5,11:00:00,270,��,8.1,-4.2,39.5,0,0.6,270,��,13.7,15
2013/2/5,12:00:00,270,��,6.8,-3.4,35.8,0,0.65,90,��,13.9,43
2013/2/5,13:00:00,315,�k��,5.9,-3,35.8,0,0.63,338,�k�k��,11.9,59
2013/2/5,14:00:00,338,�k�k��,4.7,-2.9,34.9,0,0.54,225,�쐼,11.5,5
2013/2/5,15:00:00,315,�k��,3.4,-2.8,36.7,0,0.4,315,�k��,9.9,14
2013/2/5,16:00:00,315,�k��,2,-3.5,38.9,0,0.21,315,�k��,5.4,28
2013/2/5,17:00:00,45,�k��,1.3,-5.7,45.5,0,0.04,225,�쐼,3,43
2013/2/5,18:00:00,270,��,2.6,-9.4,61.4,0,0.01,293,���k��,4.6,59
2013/2/5,19:00:00,270,��,2.1,-9.2,52,0,0.01,270,��,5.4,2
2013/2/5,20:00:00,248,���쐼,1.1,-11.1,63.6,0,0.01,338,�k�k��,3.8,29
2013/2/5,21:00:00,270,��,2.4,-9.7,59.6,0,0.01,248,���쐼,4.1,42
2013/2/5,22:00:00,248,���쐼,1.5,-15.1,71.6,0,0.01,248,���쐼,3.3,31
2013/2/5,23:00:00,270,��,2.5,-14.3,82.7,0,0.01,360,�k,4,35
2013/2/5,0:00:00,293,���k��,2.3,-16.7,77.1,0,0.01,270,��,3.2,17
2013/2/6,1:00:00,270,��,2,-15.7,77.6,0,0.01,270,��,3.8,44
2013/2/6,2:00:00,23,�k�k��,2.4,-15.1,78.9,0,0.01,360,�k,3.3,57
2013/2/6,3:00:00,45,�k��,4.5,-14.2,77,0,0.01,360,�k,5.5,55
2013/2/6,4:00:00,270,��,2.8,-14.2,79.8,0,0.01,270,��,4.8,40
2013/2/6,5:00:00,360,�k,1.8,-11.8,71.9,0,0.01,23,�k�k��,4.4,24
2013/2/6,6:00:00,23,�k�k��,2.5,-11.7,70.9,0,0.01,23,�k�k��,4.3,59
2013/2/6,7:00:00,270,��,1.7,-12.3,74.1,0,0.01,23,�k�k��,4.3,20
2013/2/6,8:00:00,293,���k��,2,-10.6,68.3,0,0.1,45,�k��,3.8,4
2013/2/6,9:00:00,315,�k��,1.3,-8.8,71,0,0.18,315,�k��,3,28
2013/2/6,10:00:00,315,�k��,1.3,-4.8,57.5,0,0.3,293,���k��,2.1,26
2013/2/6,11:00:00,315,�k��,2.4,-2.7,51.1,0,0.42,315,�k��,4.1,42
2013/2/6,12:00:00,90,��,0.9,-1.4,59.3,0,0.47,315,�k��,4,1
2013/2/6,13:00:00,90,��,1.9,-1.7,67.1,0,0.4,90,��,3.1,42
2013/2/6,14:00:00,90,��,3,-3.2,69.6,0,0.27,90,��,4.1,37
2013/2/6,15:00:00,113,���쓌,1.9,-3.2,69.5,0,0.2,90,��,4.4,14
2013/2/6,16:00:00,113,���쓌,0.7,-3.3,72.1,0,0.13,113,���쓌,2.4,4
2013/2/6,17:00:00,315,�k��,0.5,-6,84.9,0,0.03,270,��,3.6,22
2013/2/6,18:00:00,270,��,0.8,-9.6,89.5,0,0.01,248,���쐼,2.8,5
2013/2/6,19:00:00,270,��,0.6,-9.8,87.9,0,0,270,��,2,8
2013/2/6,20:00:00,270,��,0.6,-11.1,87.2,0,0.01,68,���k��,1.7,8
2013/2/6,21:00:00,248,���쐼,1.8,-9.3,85.1,0,0.01,135,�쓌,2.7,28
2013/2/6,22:00:00,270,��,1.3,-10.4,86.3,0,0.01,180,��,3,44
2013/2/6,23:00:00,293,���k��,1.1,-10.5,84.3,0,0.01,315,�k��,3.5,42
2013/2/6,0:00:00,293,���k��,1.5,-8.1,77.2,0,0.01,45,�k��,3.9,27
2013/2/7,1:00:00,293,���k��,2.5,-7.5,73.4,0,0,270,��,4.3,39
2013/2/7,2:00:00,293,���k��,2.4,-7.3,73.2,0,0.01,248,���쐼,4,45
2013/2/7,3:00:00,293,���k��,2.6,-7.6,72.5,0,0.01,315,�k��,4.3,53
2013/2/7,4:00:00,293,���k��,2.2,-7.4,74.4,0,0.01,315,�k��,3.6,53
2013/2/7,5:00:00,315,�k��,2.6,-7.5,74.4,0,0,315,�k��,4.7,34
2013/2/7,6:00:00,23,�k�k��,2.5,-7.9,77.8,0,0.01,293,���k��,4.7,33
2013/2/7,7:00:00,315,�k��,2.4,-8.1,77.7,0,0.01,315,�k��,4.2,52
2013/2/7,8:00:00,315,�k��,1.6,-7.3,77.7,0,0.08,315,�k��,4.2,9
2013/2/7,9:00:00,338,�k�k��,0.8,-5.6,79.6,0,0.19,338,�k�k��,3.4,40
2013/2/7,10:00:00,270,��,1.6,-5.1,85.7,0,0.22,45,�k��,3.9,19
2013/2/7,11:00:00,23,�k�k��,1.7,-3.8,89.3,0,0.31,23,�k�k��,3.3,55
2013/2/7,12:00:00,23,�k�k��,1.4,-3.4,92,0,0.29,23,�k�k��,2.8,1
2013/2/7,13:00:00,338,�k�k��,1.8,-3.8,94.6,0,0.12,360,�k,3.8,47
2013/2/7,14:00:00,113,���쓌,3.1,-1.4,96.5,0,0.06,90,��,8.6,0
2013/2/7,15:00:00,90,��,7.4,-1.3,92.6,0,0.07,113,���쓌,12.1,9
2013/2/7,16:00:00,90,��,5.3,-1.5,97.8,0,0.03,90,��,10.3,0
2013/2/7,17:00:00,135,�쓌,4.8,-1.6,99.3,0,0.01,113,���쓌,8.9,47
2013/2/7,18:00:00,90,��,3.3,-1.3,100,0.5,0.01,135,�쓌,6.9,0
2013/2/7,19:00:00,45,�k��,3.3,-1.1,100,0,0,68,���k��,5.5,52
2013/2/7,20:00:00,270,��,4.1,-4,99,0,0.01,90,��,5.9,52
2013/2/7,21:00:00,338,�k�k��,4.6,-4,97.9,0,0,45,�k��,7.6,25
2013/2/7,22:00:00,248,���쐼,5.1,-3.8,97.6,0,0.01,270,��,7,54
2013/2/7,23:00:00,293,���k��,2.5,-3.6,96.6,0,0,293,���k��,7.4,38
2013/2/7,0:00:00,315,�k��,1.9,-3.8,93.7,0,0.01,203,��쐼,5.5,6
2013/2/8,1:00:00,270,��,2.9,-3.7,94.2,0,0.01,225,�쐼,5,45
2013/2/8,2:00:00,248,���쐼,2.7,-4,97.1,0,0.01,270,��,4.3,30
2013/2/8,3:00:00,248,���쐼,0.6,-3.9,98.6,0,0,293,���k��,3.7,11
2013/2/8,4:00:00,248,���쐼,1.8,-4.3,98.4,0,0,248,���쐼,5.1,45
2013/2/8,5:00:00,225,�쐼,2.3,-9.9,95.2,0,0.01,180,��,4,19
2013/2/8,6:00:00,248,���쐼,2.1,-11.3,96.2,0,0.01,248,���쐼,5.9,16
2013/2/8,7:00:00,203,��쐼,1.3,-4.4,98.5,0,0.01,225,�쐼,3.8,14
2013/2/8,8:00:00,203,��쐼,2,-3.2,96.9,0,0.08,225,�쐼,4.7,38
2013/2/8,9:00:00,180,��,1.7,-2.3,86,0,0.37,180,��,3.7,58
2013/2/8,10:00:00,225,�쐼,1.9,-2.3,84.5,0,0.42,225,�쐼,4,37
2013/2/8,11:00:00,68,���k��,0.9,-0.4,84.2,0,0.6,90,��,2.3,58
2013/2/8,12:00:00,315,�k��,1.2,-1.1,82.6,3,0.43,315,�k��,2.5,56
2013/2/8,13:00:00,293,���k��,2.6,-1.7,75.2,2.5,0.38,315,�k��,4.9,30
2013/2/8,14:00:00,270,��,2.4,-0.9,65.6,1.5,0.5,180,��,3.8,55
2013/2/8,15:00:00,270,��,2.6,-1.8,67.8,1,0.34,360,�k,5.5,8
2013/2/8,16:00:00,248,���쐼,2.5,-3.3,66.2,0,0.22,270,��,5.8,38
2013/2/8,17:00:00,315,�k��,3.2,-1.7,63.2,0,0.05,360,�k,7.7,59
2013/2/8,18:00:00,293,���k��,2.6,-2.7,59.9,0,0.01,315,�k��,7.5,3
2013/2/8,19:00:00,45,�k��,3,-4.3,64.7,0,0,180,��,5.9,12
2013/2/8,20:00:00,293,���k��,5.4,-3,61.7,0,0.01,135,�쓌,9.6,57
2013/2/8,21:00:00,270,��,6,-3,62.7,0,0.01,293,���k��,13.7,46
2013/2/8,22:00:00,293,���k��,7.9,-2.4,64.7,0,0.01,293,���k��,16.2,59
2013/2/8,23:00:00,293,���k��,6.7,-2.4,57.5,0,0.01,315,�k��,15.1,28
2013/2/8,0:00:00,315,�k��,2.8,-3.7,65.3,0,0.01,225,�쐼,11.9,18
2013/2/9,1:00:00,113,���쓌,0.4,-6.1,75.7,0,0,338,�k�k��,6.9,2
2013/2/9,2:00:00,360,�k,1.9,-4.7,65.9,0,0.01,225,�쐼,4.6,20
2013/2/9,3:00:00,293,���k��,2.2,-6,72.1,0,0,315,�k��,4.6,16
2013/2/9,4:00:00,315,�k��,0.7,-12.4,84.1,0,0,293,���k��,4.4,12
2013/2/9,5:00:00,248,���쐼,1.1,-15.6,92,0,0.01,45,�k��,2.6,31
2013/2/9,6:00:00,270,��,1.7,-15,93,0,0.01,158,��쓌,3,6
2013/2/9,7:00:00,270,��,2.4,-16,88.5,0,0.02,270,��,4.3,33
2013/2/9,8:00:00,225,�쐼,0.8,-12.7,78.4,0,0.16,270,��,3.2,14
2013/2/9,9:00:00,225,�쐼,2.7,-4,53.6,0,0.35,225,�쐼,4.4,55
2013/2/9,10:00:00,270,��,5.1,-2.3,43.8,0,0.51,270,��,7.3,54
2013/2/9,11:00:00,315,�k��,4,-1,39.5,0,0.62,180,��,9.7,29
2013/2/9,12:00:00,338,�k�k��,4.9,-0.9,38.1,0,0.67,180,��,10.2,6
2013/2/9,13:00:00,315,�k��,4.7,-0.7,38.9,0,0.65,338,�k�k��,9.7,39
2013/2/9,14:00:00,338,�k�k��,4,-0.6,40.1,0,0.57,338,�k�k��,7.4,27
2013/2/9,15:00:00,315,�k��,2.5,-1.1,39.8,0,0.43,248,���쐼,7.3,25
2013/2/9,16:00:00,315,�k��,2.8,-2.4,46.5,0,0.1,293,���k��,5.8,6
2013/2/9,17:00:00,338,�k�k��,2.5,-4.2,52.5,0,0.04,68,���k��,4.5,6
2013/2/9,18:00:00,225,�쐼,0.4,-8.5,59.2,0,0,270,��,4.4,16
2013/2/9,19:00:00,23,�k�k��,2.2,-7.7,67.8,0,0.01,90,��,4.9,35
2013/2/9,20:00:00,23,�k�k��,3.7,-6.5,63.6,0,0,248,���쐼,6.2,27
2013/2/9,21:00:00,315,�k��,1.7,-8,65.7,0,0.01,158,��쓌,4.4,1
2013/2/9,22:00:00,338,�k�k��,0.4,-10.6,80.6,0,0.01,23,�k�k��,3.9,23
2013/2/9,23:00:00,338,�k�k��,0.6,-16.1,80.1,0,0,180,��,2.5,8
2013/2/9,0:00:00,270,��,0.5,-15.9,79,0,0.01,360,�k,2.7,25
2013/2/10,1:00:00,338,�k�k��,1.6,-18.6,84.9,0,0.01,113,���쓌,2.7,8
2013/2/10,2:00:00,23,�k�k��,2.1,-18.3,87.1,0,0.01,248,���쐼,3.6,43
2013/2/10,3:00:00,360,�k,2.5,-16.9,88.6,0,0.01,225,�쐼,3.9,27
2013/2/10,4:00:00,338,�k�k��,1.7,-18.6,87.7,0,0.01,270,��,4,7
2013/2/10,5:00:00,23,�k�k��,2.6,-16.9,85,0,0.01,270,��,4.6,33
2013/2/10,6:00:00,23,�k�k��,2.1,-16.2,84.7,0,0.01,248,���쐼,3.7,2
2013/2/10,7:00:00,270,��,1.8,-15.9,85.6,0,0.01,113,���쓌,3.6,31
2013/2/10,8:00:00,360,�k,1.5,-13.7,78.7,0,0.12,158,��쓌,3.1,3
2013/2/10,9:00:00,360,�k,1.6,-9.4,72.2,0,0.23,225,�쐼,3.9,8
2013/2/10,10:00:00,248,�É�,0.2,-7.7,75,0,0.32,293,���k��,3.8,21
2013/2/10,11:00:00,68,���k��,0.5,-3.9,62.8,0,0.41,90,��,3.7,32
2013/2/10,12:00:00,90,��,0.9,-2,60.5,0,0.51,360,�k,9.6,38
2013/2/10,13:00:00,68,���k��,2.7,-2.2,66.9,0,0.58,68,���k��,3.9,48
2013/2/10,14:00:00,113,���쓌,2.3,-3.1,63.9,0,0.57,113,���쓌,4,44
2013/2/10,15:00:00,90,��,2.2,-4,73,0,0.41,113,���쓌,3.8,17
2013/2/10,16:00:00,45,�k��,1.7,-4.2,76.6,0,0.22,113,���쓌,2.9,6
2013/2/10,17:00:00,23,�k�k��,1.4,-9.7,86.7,0,0.04,45,�k��,2.2,4
2013/2/10,18:00:00,68,���k��,1.2,-15.6,89.2,0,0.01,270,��,2.3,45
2013/2/10,19:00:00,270,��,1.7,-13.6,89.4,0,0,270,��,2.5,59
2013/2/10,20:00:00,23,�k�k��,2.5,-11.5,88.9,0,0,203,��쐼,3.4,55
2013/2/10,21:00:00,23,�k�k��,2.5,-13.2,83.8,0,0.01,135,�쓌,3.2,59
2013/2/10,22:00:00,23,�k�k��,2,-13.4,87,0,0.01,360,�k,3.3,41
2013/2/10,23:00:00,360,�k,2.7,-11.3,92.9,0,0.01,248,���쐼,4.6,59
2013/2/10,0:00:00,23,�k�k��,1.8,-11.7,93.5,0,0.01,248,���쐼,4.4,4
2013/2/11,1:00:00,315,�k��,3.5,-9.8,81.3,0,0.01,270,��,5.2,48
2013/2/11,2:00:00,23,�k�k��,3.4,-9.5,81.5,0,0.01,360,�k,4.8,53
2013/2/11,3:00:00,360,�k,3.2,-9,83.8,0,0.01,293,���k��,5.3,35
2013/2/11,4:00:00,360,�k,3.7,-8.8,88.2,0,0,113,���쓌,5.3,50
2013/2/11,5:00:00,360,�k,3.1,-8.7,90.5,0,0.01,180,��,6,40
2013/2/11,6:00:00,23,�k�k��,3.1,-8.5,91.3,0,0.01,225,�쐼,5.3,15
2013/2/11,7:00:00,45,�k��,3.3,-8.4,92.3,0,0.01,135,�쓌,5.8,44
2013/2/11,8:00:00,23,�k�k��,4.1,-7.6,87.7,0,0.11,270,��,5.9,49
2013/2/11,9:00:00,45,�k��,3.6,-7.2,86.9,0,0.18,23,�k�k��,7.2,0
2013/2/11,10:00:00,315,�k��,3.6,-6.3,83.6,0,0.22,68,���k��,6.6,11
2013/2/11,11:00:00,315,�k��,3.1,-5.1,82.8,0,0.26,113,���쓌,6,6
2013/2/11,12:00:00,315,�k��,2.4,-4.8,82.1,0,0.27,338,�k�k��,5.4,10
2013/2/11,13:00:00,248,���쐼,0.6,-4.5,86.4,0,0.25,315,�k��,3.4,4
2013/2/11,14:00:00,68,���k��,2.8,-3.8,84.3,0,0.21,68,���k��,4.7,33
2013/2/11,15:00:00,23,�k�k��,1.2,-3.8,88.5,0,0.19,68,���k��,4.2,4
2013/2/11,16:00:00,45,�k��,1.9,-4.7,88.3,0,0.11,45,�k��,2.8,55
2013/2/11,17:00:00,293,���k��,1,-9,90.8,0,0.04,23,�k�k��,2.3,7
2013/2/11,18:00:00,338,�k�k��,1.1,-5.2,92.9,0,0,315,�k��,2.5,22
2013/2/11,19:00:00,360,�k,1.3,-5.1,95.5,0,0.01,23,�k�k��,2.5,50
2013/2/11,20:00:00,23,�k�k��,2.8,-4.9,93.6,0,0.01,360,�k,4.2,51
2013/2/11,21:00:00,23,�k�k��,2.3,-6.1,93.7,0,0.01,23,�k�k��,4.5,6
2013/2/11,22:00:00,315,�k��,1.4,-6.7,96,0,0,293,���k��,3,31
2013/2/11,23:00:00,45,�k��,2.5,-7.7,91.9,0,0.01,158,��쓌,4.3,39
2013/2/11,0:00:00,293,���k��,2.1,-9.8,88.3,0,0.01,248,���쐼,4.4,31
2013/2/12,1:00:00,23,�k�k��,2.6,-13.4,94.5,0,0.01,315,�k��,3.9,11
2013/2/12,2:00:00,23,�k�k��,2.5,-14.8,92,0,0.01,23,�k�k��,3.9,41
2013/2/12,3:00:00,360,�k,1.5,-17.3,88.7,0,0.01,45,�k��,3.4,34
2013/2/12,4:00:00,338,�k�k��,2.1,-16.2,91.7,0,0.01,293,���k��,4.1,35
2013/2/12,5:00:00,338,�k�k��,1.9,-18.2,88.7,0,0,203,��쐼,3.7,50
2013/2/12,6:00:00,23,�k�k��,2.5,-17.7,89.5,0,0.01,23,�k�k��,3.6,55
2013/2/12,7:00:00,23,�k�k��,2.5,-16.7,91.1,0,0.02,180,��,4.7,49
2013/2/12,8:00:00,23,�k�k��,2.4,-14.3,92.6,0,0.12,225,�쐼,4.3,13
2013/2/12,9:00:00,45,�k��,1.9,-11.9,83.6,0,0.21,225,�쐼,2.8,59
2013/2/12,10:00:00,315,�É�,0.2,-8.3,77.4,0,0.44,203,��쐼,7.6,55
2013/2/12,11:00:00,23,�k�k��,1.2,-5.5,81.1,0,0.6,23,�k�k��,2.5,32
2013/2/12,12:00:00,45,�k��,1.6,-4.7,79.9,0,0.55,23,�k�k��,2.5,53
2013/2/12,13:00:00,45,�k��,1.8,-4.4,85.2,0,0.5,45,�k��,2.6,55
2013/2/12,14:00:00,68,���k��,0.6,-1.8,82.8,0.5,0.44,45,�k��,2.7,27
2013/2/12,15:00:00,90,��,0.7,-3.3,83.9,0,0.42,90,��,1.3,49
2013/2/12,16:00:00,180,��,1,-5.1,85.6,0,0.24,180,��,2,47
2013/2/12,17:00:00,135,�É�,0.1,-9.5,93.5,0,0.05,180,��,1.7,1
2013/2/12,18:00:00,270,��,0.6,-12.7,95,0,0,225,�쐼,1.4,27
2013/2/12,19:00:00,248,���쐼,1.7,-14.5,89.8,0,0,180,��,2.6,37
2013/2/12,20:00:00,225,�쐼,2.4,-11.7,94,0,0,270,��,3.2,46
2013/2/12,21:00:00,270,��,1.9,-11.1,95.3,0,0,180,��,4.4,14
2013/2/12,22:00:00,225,�쐼,2.7,-11.6,93.6,0,0,315,�k��,4.3,40
2013/2/12,23:00:00,248,���쐼,1.5,-10.3,94.5,0,0.01,203,��쐼,3.9,26
2013/2/12,0:00:00,248,���쐼,1.8,-10.4,94.9,0,0.01,270,��,3,22
2013/2/13,1:00:00,135,�쓌,1.9,-9.5,95.4,0,0,158,��쓌,2.9,0
2013/2/13,2:00:00,270,��,2.1,-8,93.7,0,0.01,360,�k,3.9,14
2013/2/13,3:00:00,293,���k��,2.5,-7.8,94,0,0.01,225,�쐼,4.1,55
2013/2/13,4:00:00,315,�k��,2.1,-7.6,94.5,0,0,203,��쐼,4.1,1
2013/2/13,5:00:00,293,���k��,2.4,-7.5,94.1,0,0.01,293,���k��,4.1,18
2013/2/13,6:00:00,315,�k��,2.9,-8.1,94.3,0,0.01,90,��,4.9,47
2013/2/13,7:00:00,293,���k��,3.7,-7.7,94.2,0,0.01,90,��,5.7,53
2013/2/13,8:00:00,315,�k��,3.1,-7.5,92.5,0,0.05,360,�k,6.4,29
2013/2/13,9:00:00,315,�k��,2.8,-6.8,90.8,0,0.11,248,���쐼,6,42
2013/2/13,10:00:00,315,�k��,2.6,-5.7,91.2,0,0.18,360,�k,6.5,9
2013/2/13,11:00:00,315,�k��,3.5,-4.6,82.5,0,0.34,23,�k�k��,7.1,43
2013/2/13,12:00:00,315,�k��,3.5,-3.2,77.5,0,0.38,225,�쐼,7.2,13
2013/2/13,13:00:00,315,�k��,2.8,-2,74.7,1,0.6,270,��,5.4,24
2013/2/13,14:00:00,23,�k�k��,2.3,-2,73.4,0.5,0.43,360,�k,4.8,40
2013/2/13,15:00:00,315,�k��,2.6,-1.7,68.3,0,0.42,45,�k��,5.7,34
2013/2/13,16:00:00,23,�k�k��,3,-3.4,75.1,0,0.19,90,��,5.8,57
2013/2/13,17:00:00,360,�k,2.6,-4.9,78.7,0,0.03,270,��,5,0
2013/2/13,18:00:00,23,�k�k��,3.1,-5.6,81.6,0,0,360,�k,4.7,40
2013/2/13,19:00:00,315,�k��,1.9,-5.6,80.6,0,0,360,�k,4.4,10
2013/2/13,20:00:00,360,�k,1.4,-6.1,85,0,0.01,293,���k��,3.9,3
2013/2/13,21:00:00,45,�k��,2.7,-7.9,85.3,0,0,360,�k,4,43
2013/2/13,22:00:00,338,�k�k��,0.8,-10.2,94.9,0,0.01,360,�k,7.1,35
2013/2/13,23:00:00,338,�k�k��,2.2,-9.3,97.2,0,0.01,360,�k,2.6,58
2013/2/13,0:00:00,360,�k,3.1,-8,95.5,0,0,113,���쓌,4.3,33
2013/2/14,1:00:00,360,�k,3.5,-8.3,88.8,0,0,360,�k,5.1,36
2013/2/14,2:00:00,338,�k�k��,2.2,-9,91,0,0,90,��,5.3,12
2013/2/14,3:00:00,248,���쐼,1.7,-13.1,93.6,0,0.01,225,�쐼,3.3,5
2013/2/14,4:00:00,248,���쐼,2.5,-14.9,92.4,0,0.01,225,�쐼,3.6,24
2013/2/14,5:00:00,23,�k�k��,3.2,-13,93.8,0,0.01,360,�k,4.1,57
2013/2/14,6:00:00,360,�k,2.1,-14.1,92.6,0,0.01,203,��쐼,3.4,0
2013/2/14,7:00:00,270,��,2.5,-15.5,93.2,0,0.02,270,��,3.6,59
2013/2/14,8:00:00,45,�k��,1.3,-13.5,92.7,0,0.17,203,��쐼,3.3,0
2013/2/14,9:00:00,338,�k�k��,0.7,-10.7,86.4,0,0.37,270,��,2.6,24
2013/2/14,10:00:00,23,�É�,0.2,-4.5,75.8,0,0.53,270,��,3.1,35
2013/2/14,11:00:00,68,���k��,1.2,-2,80.1,0,0.64,68,���k��,2.5,40
2013/2/14,12:00:00,113,���쓌,2.3,-2.7,80.3,0,0.68,135,�쓌,3.3,58
2013/2/14,13:00:00,90,��,1.6,-0.7,85.1,0,0.66,135,�쓌,3.4,0
2013/2/14,14:00:00,68,���k��,1.7,-2,87.2,0,0.57,68,���k��,2.9,50
2013/2/14,15:00:00,45,�k��,1.5,-2.2,87.2,0,0.43,45,�k��,3.2,14
2013/2/14,16:00:00,68,���k��,0.8,-3.4,88.1,0,0.23,68,���k��,2.5,18
2013/2/14,17:00:00,360,�É�,0.2,-6.8,97.2,0,0.04,315,�k��,1.9,55
2013/2/14,18:00:00,315,�k��,0.4,-7.8,98.2,0,0,338,�k�k��,2.1,51
2013/2/14,19:00:00,248,���쐼,0.6,-10.3,95.8,0,0,203,��쐼,2.3,16
2013/2/14,20:00:00,248,���쐼,0.8,-12.1,92.5,0,0,293,���k��,1.9,33
2013/2/14,21:00:00,270,��,2.1,-13.1,92,0,0.01,203,��쐼,2.7,40
2013/2/14,22:00:00,248,���쐼,4.4,-3.7,99.4,0,0,248,���쐼,7.5,45
2013/2/14,23:00:00,270,��,2.3,-6.5,96.8,0,0,248,���쐼,5.5,2
2013/2/14,0:00:00,248,���쐼,2.5,-7.5,88.3,0,0,293,���k��,4.3,44
2013/2/15,1:00:00,270,��,0.4,-9.3,91.7,0,0,135,�쓌,5,8
2013/2/15,2:00:00,248,���쐼,3,-10.1,93.1,0,0.01,158,��쓌,4.5,57
2013/2/15,3:00:00,293,���k��,1.8,-8.1,92.2,0,0.01,248,���쐼,5.4,2
2013/2/15,4:00:00,270,��,0.5,-10.4,94.7,0,0,360,�k,2.5,2
2013/2/15,5:00:00,225,�쐼,2.5,-8.9,93.1,0,0.01,270,��,4.2,16
2013/2/15,6:00:00,225,�쐼,1.7,-8.3,93.6,0,0.01,270,��,3.3,7
2013/2/15,7:00:00,270,��,0.5,-10.7,97,0,0.01,270,��,8.1,55
2013/2/15,8:00:00,270,��,1.6,-11.9,94.2,0,0.11,248,���쐼,2.6,46
2013/2/15,9:00:00,270,��,0.6,-7.3,87.7,0,0.27,270,��,4.1,53
2013/2/15,10:00:00,113,���쓌,1.1,-1.6,83.9,0,0.45,135,�쓌,2.2,42
2013/2/15,11:00:00,135,�쓌,2.2,-2.3,73.9,0,0.48,135,�쓌,3.7,54
2013/2/15,12:00:00,113,���쓌,1.4,-1.4,67,0,0.56,158,��쓌,2.8,20
2013/2/15,13:00:00,23,�k�k��,1.7,-0.9,68.9,0,0.58,113,���쓌,2.8,12
2013/2/15,14:00:00,180,��,1,-0.7,62,0,0.52,360,�k,1.9,0
2013/2/15,15:00:00,135,�쓌,2.2,-1.9,76.1,0,0.19,113,���쓌,4.1,22
2013/2/15,16:00:00,23,�k�k��,1.3,-2.2,74.7,0,0.11,113,���쓌,2.4,0
2013/2/15,17:00:00,248,���쐼,0.3,-5.3,84.9,0,0.03,360,�k,1.5,19
2013/2/15,18:00:00,248,���쐼,1,-5.1,86.9,0,0,248,���쐼,1.4,59
2013/2/15,19:00:00,225,�쐼,1.9,-5.7,84.6,0,0,225,�쐼,2.5,52
2013/2/15,20:00:00,270,��,1.7,-6.7,89.8,0,0,225,�쐼,2.5,5
2013/2/15,21:00:00,248,���쐼,1.9,-5,92.9,0,0,293,���k��,2.7,59
2013/2/15,22:00:00,248,���쐼,2.1,-3.6,87.5,0,0,270,��,4.1,32
2013/2/15,23:00:00,315,�k��,0.7,-4.1,96,0,0.01,248,���쐼,3.3,5
2013/2/15,0:00:00,293,���k��,2.2,-4.4,96.3,0,0,270,��,3.7,52
2013/2/16,1:00:00,45,�k��,1.6,-4.8,95.7,0,0.01,23,�k�k��,3.6,31
2013/2/16,2:00:00,270,��,2.1,-5.3,81.8,0,0,180,��,3.3,59
2013/2/16,3:00:00,293,���k��,2.8,-6.8,82.5,0,0,23,�k�k��,5.4,52
2013/2/16,4:00:00,270,��,2.2,-7.2,80.6,0,0,203,��쐼,5.2,5
2013/2/16,5:00:00,248,���쐼,2.5,-7.1,83.9,0,0,90,��,4.7,39
2013/2/16,6:00:00,293,���k��,2.3,-7.5,82.3,0,0,225,�쐼,7.3,29
2013/2/16,7:00:00,315,�k��,3,-7.1,74.4,0,0.02,315,�k��,5.7,37
2013/2/16,8:00:00,270,��,3.2,-7.6,74.4,0,0.09,225,�쐼,8,10
2013/2/16,9:00:00,293,���k��,3.2,-5.9,66.4,0,0.33,158,��쓌,6.4,23
2013/2/16,10:00:00,360,�k,5.4,-4.9,53.5,0,0.54,338,�k�k��,9.1,58
2013/2/16,11:00:00,293,���k��,4.2,-4.1,46,0,0.6,338,�k�k��,9.2,27
2013/2/16,12:00:00,360,�k,4.4,-3.7,48.2,0,0.68,338,�k�k��,9.5,35
2013/2/16,13:00:00,23,�k�k��,4.5,-3.5,50.1,0,0.67,23,�k�k��,7.7,14
2013/2/16,14:00:00,45,�k��,3.5,-4.4,53.6,0,0.45,68,���k��,7.1,33
2013/2/16,15:00:00,45,�k��,0.8,-4.2,55,0,0.26,45,�k��,5.1,0
2013/2/16,16:00:00,23,�k�k��,1.6,-5.3,56.8,0,0.16,23,�k�k��,3.9,56
2013/2/16,17:00:00,315,�k��,2.6,-6.6,58.6,0,0.04,338,�k�k��,4.7,33
2013/2/16,18:00:00,338,�k�k��,3.5,-7.4,45,0,0,338,�k�k��,7.2,48
2013/2/16,19:00:00,270,��,3.2,-7.6,44.1,0,0.01,270,��,10.2,20
2013/2/16,20:00:00,270,��,2.1,-10.6,49.5,0,0,270,��,6,9